Terug naar catalogus

THOR ABLESTAR DEB

ActiefLEO
NORAD 5785·DEBRIS·🇺🇸 United States

Gelanceerd Jun 29, 1961 vanaf Cape Canaveral Space Force Station

Loading…

Volgende Passages (komende 24 uur)

TLE

VersSource: Space-Track

Epoch: Sep 14, 2026, 05:00 UTC

1 05785U 61015JZ  26257.20862874  .00000277  00000-0  29388-3 0  9996
2 05785  65.6400 168.5435 0147234 288.7723  69.7417 13.84869617298341

Volg THOR ABLESTAR DEB in realtime met AllMySat

Download on the App Store